FENGYUN 1C DEB

Satellite information

Favourite Embed

Satellite Type and Status

DEBRISIN ORBIT

Key statistics

Satellite FENGYUN 1C DEB at a glance.

Uptime

9663

Days in orbit

Revolutions

≈ 13.7

Per day

Orbit

SSO

Sun Synchronous Orbit

Inclination

99.0

Latest

Satellite identification and parameters

Extended collection of information and parameters for FENGYUN 1C DEB.

Object identification

Identified? True

Debris? True

Object name: FENGYUN 1C DEB

International designator: 1999-025EEC

Object number (NORAD): 37044

Object ID (CCSDS): 37044

Country: PEOPLES REPUBLIC OF CHINA (PRC)

Current information (Y/N): Y

RCS size: SMALL

Orbital parameters

Period: 105.13 minutes

Inclination: 98.9621 deg

SMA: 7378.671 km

Apoapsis: 1376.369 km

Periapsis: 624.704 km

RAAN: 44.4008 deg

Eccentricy: 0.05093497

Argument of periapsis: 297.8652 deg

Mean anomaly: 57.1784 deg

Mean motion: 13.69731715 rev/day

Mean motion (dot): 0.0000717 rev/day2

B* drag term: 0.0032795219 1/REarth

Two-line elements (TLE)

Creation date: Oct. 22, 2025, 5:40 p.m.

Reference frame: TEME

Reference center: EARTH

Epoch: Oct. 22, 2025, 12:51 a.m. UTC

TLE line 0: 0 FENGYUN 1C DEB

TLE line 1: 1 37044U 99025EEC 25295.03566126 .00007170 00000-0 32795-2 0 9998

TLE line 2: 2 37044 98.9621 44.4008 0509350 297.8652 57.1784 13.69731715831508

Live tracking on map

Real-time ground track for satellite FENGYUN 1C DEB.

In-orbit conjunctions

A list of the most updated potential collisions computed for object FENGYUN 1C DEB.

Target Orbit TCA Probability of collision Miss distance Type
SL-16 R/B LEO 2025-09-14 08:00:55 0.0001400293 299.0 (m) ROCKET BODY
CZ-6A DEB LEO 2024-12-16 09:26:24 0.000135974 617.0 (m) DEBRIS

Associated space launch

Chinese polar orbiting meteorological satellite

FENGYUN 1C DEB was lifted into orbit during the mission ‘Long March 4B | Feng Yun 1C’, on board a Long March 4B space rocket.

The launch took place on May 10, 1999, 1:33 a.m. from Launch Complex 7.

For more information about the launch, click the button.

Launch to space Long March 4B | Feng Yun 1C
Long March 4B | Feng Yun 1C

Agency: N/A

Status: Launch Successful

Launch date: May 10, 1999, 1:33 a.m. UTC

Rocket: Long March 4B

Launch pad: Launch Complex 7

Location: Taiyuan Satellite Launch Center, People's Republic of China

...

Latest news about this satellite

There are no fresh news available about this satellite. Check back as we update our databases every day.


Newsletter sign-up

Weekly statistics, charts and insights to help you stay on top of the space industry.